WT9M-8 Weather Reports


time (UTC)temp
C
wind
direction
speed
KPH
gust
KPH
rain 1hr
cm
rain 24hr
cm
rain mn
cm
humidity
%
barometer
mb
20260506151022 10 280 6.4 14.5 0.00 0.00 0.00 50 1014.9
20260506150018 11 272 8.0 16.1 0.00 0.00 0.00 51 1014.8
20260506145035 10 266 8.0 14.5 0.00 0.00 0.00 50 1014.9
20260506143027 10 261 8.0 16.1 0.00 0.00 0.00 53 1014.6
20260506142024 10 265 6.4 11.3 0.00 0.00 0.00 54 1014.5
20260506141021 10 260 6.4 12.9 0.00 0.00 0.00 57 1014.5
20260506140039 10 252 6.4 12.9 0.00 0.00 0.00 60 1014.5
20260506135056 9 255 4.8 11.3 0.00 0.00 0.00 63 1014.4
20260506134031 8 261 4.8 12.9 0.00 0.00 0.00 66 1014.3
20260506133027 7 275 6.4 11.3 0.00 0.00 0.00 68 1014.3
20260506132024 7 263 4.8 11.3 0.00 0.00 0.00 72 1014.1
20260506131022 7 245 4.8 9.7 0.00 0.00 0.00 77 1014.1
20260506130017 6 276 1.6 6.4 0.00 0.00 0.00 81 1014.0
20260506125034 5 207 1.6 3.2 0.00 0.00 0.00 85 1014.1
20260506124113 3 0.0 0.0 0.00 0.00 0.00 85 1013.7
20260506123047 2 86 1.6 4.8 0.00 0.00 0.00 86 1013.7
20260506122046 0 79 1.6 3.2 0.00 0.00 0.00 87 1013.9
20260506121021 -1 83 3.2 3.2 0.00 0.00 0.00 88 1013.9
20260506120017 -2 82 1.6 4.8 0.00 0.00 0.00 86 1013.8
20260506115054 -3 0.0 0.0 0.00 0.00 0.00 85 1013.7
20260506114031 -3 0.0 0.0 0.00 0.00 0.00 85 1013.5
20260506113047 -3 0.0 0.0 0.00 0.00 0.00 85 1013.2
20260506112024 -3 0.0 0.0 0.00 0.00 0.00 85 1012.9
20260506111020 -3 0.0 0.0 0.00 0.00 0.00 84 1012.9
20260506110017 -3 0.0 0.0 0.00 0.00 0.00 84 1012.9
20260506105034 -3 0.0 0.0 0.00 0.00 0.00 84 1013.0
20260506104030 -3 0.0 0.0 0.00 0.00 0.00 84 1012.9
20260506103027 -3 0.0 0.0 0.00 0.00 0.00 84 1012.9
20260506102024 -3 0.0 0.0 0.00 0.00 0.00 84 1013.0
20260506101020 -3 0.0 0.0 0.00 0.00 0.00 84 1012.7
20260506100017 -3 0.0 0.0 0.00 0.00 0.00 83 1012.5
20260506095034 -3 0.0 0.0 0.00 0.00 0.00 83 1012.5
20260506094032 -3 0.0 0.0 0.00 0.00 0.00 83 1012.5
20260506093027 -3 0.0 0.0 0.00 0.00 0.00 83 1012.4
20260506092024 -3 0.0 0.0 0.00 0.00 0.00 83 1012.4
20260506091020 -3 0.0 0.0 0.00 0.00 0.00 83 1012.5
20260506090018 -2 0.0 0.0 0.00 0.00 0.00 82 1012.3
20260506085034 -2 0.0 0.0 0.00 0.00 0.00 82 1012.2
20260506084030 -2 0.0 0.0 0.00 0.00 0.00 82 1012.2
20260506083049 -2 0.0 0.0 0.00 0.00 0.00 83 1012.1
20260506082025 -2 0.0 0.0 0.00 0.00 0.00 82 1012.2
20260506081020 -2 0.0 0.0 0.00 0.00 0.00 83 1012.1
20260506073026 -2 0.0 0.0 0.00 0.00 0.00 80 1011.6
20260506072024 -1 0.0 0.0 0.00 0.00 0.00 80 1011.6
20260506071019 -1 0.0 0.0 0.00 0.00 0.00 80 1011.4
20260506062022 -1 0.0 0.0 0.00 0.00 0.00 79 1011.8
20260506061020 -1 0.0 0.0 0.00 0.00 0.00 78 1011.8
20260506051018 0 0.0 0.0 0.00 0.00 0.00 75 1011.3
20260506045032 0 0.0 0.0 0.00 0.00 0.00 74 1011.3
20260506044048 1 0.0 0.0 0.00 0.00 0.00 75 1011.3
20260506043025 1 0.0 0.0 0.00 0.00 0.00 75 1011.4
20260506042024 1 0.0 0.0 0.00 0.00 0.00 74 1011.3
20260506041018 1 87 0.0 1.6 0.00 0.00 0.00 74 1011.2
20260506040035 1 79 1.6 3.2 0.00 0.00 0.00 74 1011.3
20260506035032 1 91 0.0 3.2 0.00 0.00 0.00 72 1011.1
20260506034030 1 91 1.6 1.6 0.00 0.00 0.00 72 1011.1
20260506033026 1 90 1.6 3.2 0.00 0.00 0.00 73 1011.0
20260506032022 2 88 1.6 3.2 0.00 0.00 0.00 72 1011.1
20260506031018 2 83 3.2 3.2 0.00 0.00 0.00 72 1011.0
20260506030035 2 80 3.2 3.2 0.00 0.00 0.00 71 1011.0
20260506025032 2 94 1.6 3.2 0.00 0.00 0.00 69 1010.9
20260506024028 3 86 3.2 3.2 0.00 0.00 0.00 69 1010.9
20260506023025 3 84 3.2 4.8 0.00 0.00 0.00 68 1010.6
20260506022041 3 91 1.6 3.2 0.00 0.00 0.00 65 1010.4
20260506021018 4 91 1.6 3.2 0.00 0.00 0.00 64 1010.1
20260506020035 5 82 1.6 3.2 0.00 0.00 0.00 62 1010.2
20260506015031 5 79 1.6 3.2 0.00 0.00 0.00 59 1009.8
20260506014028 5 89 1.6 1.6 0.00 0.00 0.00 58 1009.8
20260506013024 6 70 1.6 4.8 0.00 0.00 0.00 56 1009.7
20260506012021 7 86 0.0 1.6 0.00 0.00 0.00 53 1009.7
20260506011018 7 0.0 0.0 0.00 0.00 0.00 50 1009.6
20260506010034 7 225 0.0 1.6 0.00 0.00 0.00 48 1009.6
20260506005030 8 232 1.6 3.2 0.00 0.00 0.00 47 1009.5
20260506004027 9 234 3.2 9.7 0.00 0.00 0.00 46 1009.5
20260506003042 10 236 3.2 9.7 0.00 0.00 0.00 45 1009.5
20260506002018 10 257 1.6 4.8 0.00 0.00 0.00 45 1009.4
20260506001035 10 261 3.2 9.7 0.00 0.00 0.00 44 1009.4
20260506000033 10 253 3.2 11.3 0.00 0.00 0.00 43 1009.4
20260505235028 11 258 3.2 6.4 0.00 0.00 0.00 43 1009.3
20260505234025 11 266 3.2 4.8 0.00 0.00 0.00 42 1009.3
20260505233023 11 272 4.8 16.1 0.00 0.00 0.00 41 1009.3
20260505222035 13 276 6.4 12.9 0.00 0.00 0.00 37 1009.3
20260505221052 14 259 9.7 33.8 0.00 0.00 0.00 36 1009.1
20260505220028 15 246 8.0 16.1 0.00 0.00 0.00 37 1009.3
20260505215025 14 260 8.0 17.7 0.00 0.00 0.00 38 1009.2
20260505214022 13 247 6.4 12.9 0.00 0.00 0.00 38 1009.3
20260505213018 13 253 6.4 12.9 0.00 0.00 0.00 37 1009.2
20260505212035 15 244 9.7 24.1 0.00 0.00 0.00 35 1009.2
20260505211031 16 254 8.0 24.1 0.00 0.00 0.00 35 1009.4
20260505210028 17 251 8.0 16.1 0.00 0.00 0.00 35 1009.3
20260505205025 17 235 9.7 22.5 0.00 0.00 0.00 36 1009.5
20260505204043 17 246 11.3 22.5 0.00 0.00 0.00 35 1009.5
20260505203018 17 242 12.9 29.0 0.00 0.00 0.00 36 1009.6
20260505202035 16 251 12.9 24.1 0.00 0.00 0.00 36 1009.7
20260505201033 14 253 12.9 29.0 0.00 0.00 0.00 39 1009.8
20260505200028 13 239 9.7 27.4 0.00 0.00 0.00 40 1009.8
20260505195024 13 243 8.0 22.5 0.00 0.00 0.00 39 1009.7
20260505194021 14 251 9.7 24.1 0.00 0.00 0.00 37 1009.7
20260505193018 14 274 8.0 22.5 0.00 0.00 0.00 36 1009.9
20260505192054 15 257 9.7 24.1 0.00 0.00 0.00 37 1009.9
20260505191031 15 248 9.7 22.5 0.00 0.00 0.00 39 1009.8
20260505190029 15 234 9.7 20.9 0.00 0.00 0.00 38 1010.0
20260505185044 15 265 11.3 25.7 0.00 0.00 0.00 35 1010.0
20260505184021 16 261 9.7 24.1 0.00 0.00 0.00 35 1009.9
20260505183018 15 253 8.0 20.9 0.00 0.00 0.00 37 1009.8
20260505182034 15 288 11.3 24.1 0.00 0.00 0.00 35 1009.7
20260505181031 15 247 8.0 14.5 0.00 0.00 0.00 37 1009.4
20260505180028 15 261 11.3 24.1 0.00 0.00 0.00 36 1009.4
20260505175025 15 275 11.3 22.5 0.00 0.00 0.00 36 1009.4
20260505174020 16 230 9.7 17.7 0.00 0.00 0.00 37 1009.4
20260505173017 16 228 12.9 27.4 0.00 0.00 0.00 38 1009.4
20260505172034 16 222 8.0 17.7 0.00 0.00 0.00 39 1009.4
20260505171110 15 248 9.7 22.5 0.00 0.00 0.00 39 1009.6
20260505170027 15 236 6.4 12.9 0.00 0.00 0.00 38 1009.7
20260505165044 15 227 9.7 29.0 0.00 0.00 0.00 38 1009.7
20260505164100 14 246 8.0 20.9 0.00 0.00 0.00 36 1009.7
20260505163017 15 271 9.7 24.1 0.00 0.00 0.00 36 1009.7
20260505162036 15 267 8.0 22.5 0.00 0.00 0.00 37 1009.7
20260505161031 14 259 8.0 17.7 0.00 0.00 0.00 37 1009.6
20260505153019 13 247 6.4 16.1 0.00 0.00 0.00 41 1009.2
20260505152114 13 270 9.7 20.9 0.00 0.00 0.00 41 1009.3